Location: Beranovka
(49.9415°N, 12.8435°E)
Time: 23:41:42
(UTC+00:00)

deb Kosmos-1763 - Pass Details

Date: 10 August 2020
Orbit: 463 x 478 km, 74.0° (Epoch: 23 September)

Event Time Altitude Azimuth Distance (km) Brightness Sun altitude
Rises 20:13:39 0° 204° (SSW) 2,503 7.5 -13.7°
Reaches altitude 10° 20:15:45 10° 205° (SSW) 1,634 6.5 -14.0°
Maximum altitude 20:19:21 84° 294° (WNW) 484 4.0 -14.4°
Drops below altitude 10° 20:23:01 10° 23° (NNE) 1,658 7.1 -14.8°
Sets 20:25:09 0° 24° (NNE) 2,544 8.1 -15.0°
